Location: UFOWorks Observatory
(42.1050°N, 72.2350°W)
Time: 19:06:12
(UTC-04:00)

ISS - Visible Passes

Search period start: 22 October 2014 00:00
Search period end: 01 November 2014 00:00
Orbit: 413 x 416 km, 51.6° (Epoch: 22 October)

Date Brightness Start Highest point End Pass type
(mag) Time Alt. Az. Time Alt. Az. Time Alt. Az.
22 Oct -2.7 19:42:11 10° NW 19:44:59 51° NNW 19:44:59 51° NNW visible
23 Oct -2.6 18:53:10 10° NW 18:56:20 38° NNE 18:58:03 22° E visible
23 Oct -0.2 20:30:00 10° WNW 20:30:55 16° W 20:30:55 16° W visible
24 Oct -2.7 19:40:39 10° WNW 19:43:55 52° SW 19:44:05 52° SSW visible
25 Oct -3.3 18:51:25 10° NW 18:54:46 88° NNE 18:57:21 16° SE visible
25 Oct 0.1 20:29:54 10° WSW 20:30:15 11° WSW 20:30:15 11° WSW visible
26 Oct -0.8 19:39:28 10° W 19:41:58 20° SW 19:43:42 14° S visible
27 Oct -1.6 18:49:47 10° WNW 18:52:51 34° SW 18:55:53 10° SSE visible
29 Oct -0.1 18:48:57 10° W 18:50:35 13° SW 18:52:12 10° SSW visible
